Lapse_Rate
7.1 7.1 6.9 7.0 7.1 6.7 6.6 6.3 6.6 5.8 6.6 6.6 6.5 6.0 6.4 6.1 5.9 6.0 5.9 5.7 5.3 5.2
7.6 7.1 7.0 6.9 6.9 6.8 6.6 6.3 6.3 6.2 6.3 6.6 6.3 6.0 6.9 6.7 6.3 6.2 6.1 5.9 5.5 5.4
7.7 7.5 7.0 7.1 6.8 6.8 6.8 6.4 6.2 6.2 6.4 6.3 6.3 6.1 6.4 6.7 6.5 6.2 6.0 5.9 5.7 5.6
7.7 7.5 7.9 6.8 6.7 6.8 6.8 6.8 6.3 6.3 6.4 6.6 6.2 6.1 6.1 6.5 6.5 6.2 6.1 5.9 5.8 5.7
7.8 7.4 7.2 7.1 6.9 7.1 6.7 6.6 6.5 6.3 6.5 6.6 6.5 6.1 6.0 6.2 6.4 6.3 6.2 6.1 5.7 5.6
7.6 7.6 7.4 7.5 7.1 7.1 6.9 6.5 6.2 6.3 6.3 6.4 6.5 6.3 6.2 6.2 6.2 6.1 5.9 5.7 5.6 5.6
6.8 6.8 6.9 7.1 7.0 7.1 7.2 6.9 6.7 6.3 6.5 6.4 6.3 6.4 6.3 6.2 6.2 6.0 5.8 5.6 5.6 5.6
7.3 7.2 7.0 6.8 6.7 7.0 7.1 7.1 7.1 6.5 6.3 6.6 6.4 6.2 6.4 6.3 6.2 6.1 5.9 5.8 5.8 5.9
6.7 6.1 6.6 6.9 6.9 6.6 7.1 6.9 6.8 7.0 6.6 6.4 6.4 6.5 6.4 6.4 6.3 6.3 6.2 6.1 6.0 5.9
6.4 6.8 5.5 7.0 7.1 6.7 6.9 6.9 7.2 6.7 7.1 6.7 6.6 6.5 6.2 6.2 6.3 6.3 6.3 6.2 6.1 6.1
6.4 6.1 5.9 6.7 7.3 7.3 7.2 7.1 6.8 7.2 7.2 7.0 6.9 6.8 6.9 6.8 6.5 6.0 5.9 6.1 6.2 6.1
6.3 6.0 5.8 5.9 7.1 7.1 7.3 7.3 7.3 7.0 7.3 7.0 7.1 6.9 6.6 6.8 6.8 6.4 6.2 5.8 6.1 6.3
7.2 7.0 6.4 6.6 6.5 6.7 6.7 7.3 7.4 7.4 7.5 7.7 7.3 7.3 6.8 6.6 6.7 6.9 6.5 5.8 6.0 6.1
5.5 6.6 6.2 6.0 6.6 6.9 6.5 6.5 6.9 7.1 7.2 7.0 7.5 7.6 7.5 7.9 7.7 6.7 6.2 5.4 5.3 5.3
Wind_Speed
19 13 10 16 15 14 15 15 18 17 15 12 14 10 14 11 10 11 8 8 7 4
17 18 13 17 13 15 16 14 16 16 15 16 13 13 14 11 12 11 10 8 7 6
21 17 16 13 17 18 18 17 19 19 17 17 15 16 11 10 11 11 9 8 9 7
21 19 17 14 17 16 17 18 19 18 18 18 18 16 13 13 12 14 10 10 10 11
19 19 18 16 15 16 15 15 18 19 20 18 18 17 18 15 16 14 14 13 11 11
16 18 17 16 12 17 17 16 16 19 20 20 19 18 17 18 15 15 14 13 13 13
16 18 18 15 14 16 15 17 18 16 19 20 19 19 18 16 15 13 13 13 13 13
14 19 19 17 15 13 18 15 17 16 17 17 17 13 17 16 15 15 14 12 13 12
16 14 22 19 15 14 10 15 13 18 14 19 13 17 18 17 14 15 14 11 10 7
14 9 14 17 16 15 15 14 15 15 18 16 16 17 17 17 12 11 12 10 8 6
20 19 13 18 18 15 14 12 14 13 13 13 10 17 15 12 9 6 5 7 7 7
16 16 15 6 14 14 12 13 13 11 12 13 8 13 16 15 9 7 6 5 6 7
19 17 16 13 9 3 10 11 5 5 7 11 9 9 10 7 6 11 7 4 3 8
20 16 18 17 14 12 7 4 8 5 4 5 9 8 13 13 8 7 7 7 5 4
Wind_Direction
209 217 196 176 178 179 183 187 190 192 187 189 186 176 178 185 186 190 193 199 202 193
201 215 207 183 175 183 185 189 189 194 188 189 186 193 180 183 187 189 191 200 198 199
194 210 206 180 189 181 190 186 189 191 190 188 191 193 186 189 185 186 194 197 195 200
196 201 202 193 186 192 187 185 188 191 192 190 193 194 196 191 191 194 195 195 204 199
192 197 198 197 186 184 189 190 187 192 193 193 195 192 196 198 196 199 197 196 199 208
196 189 195 195 194 187 186 191 194 191 193 196 195 198 198 199 199 198 200 197 201 206
186 189 196 200 198 187 187 189 195 192 194 198 200 198 199 200 200 203 203 201 203 205
195 187 189 195 202 199 190 193 194 197 192 194 202 203 199 200 200 202 209 204 202 203
179 203 185 192 198 196 188 192 196 199 190 195 201 191 188 192 199 204 205 205 200 202
352 221 205 178 192 194 200 188 196 204 199 193 186 177 187 190 196 198 202 200 185 154
4 353 271 188 185 196 203 198 202 201 204 201 178 156 159 172 191 186 159 182 180 173
8 359 351 337 182 183 201 209 200 199 190 194 154 160 157 146 136 131 168 186 167 154
7 9 5 6 27 304 198 210 187 161 173 170 153 158 151 155 151 152 148 140 150 183
13 15 16 12 15 18 3 179 188 141 136 161 157 167 172 166 168 168 154 171 168 184